owner,sensor,date,latitude,longitude,vertical_datum,direction_of_sea_water_velocity,sea_water_speed,upward_sea_water_velocity,qcFlag 
TABS,ioos:station:wmo:42047:1,2011-12-01T00:00:00Z,27.8966,-93.5973,2.0,354.3704395,26.80931368,-99999.0,'11111222,11111222,99999999' 
TABS,ioos:station:wmo:42047:1,2011-12-01T00:30:00Z,27.8966,-93.5973,2.0,10.49899027,25.62906358,-99999.0,'11111222,11111222,99999999' 
TABS,ioos:station:wmo:42047:1,2011-12-01T01:00:00Z,27.8966,-93.5973,2.0,18.77905789,25.28602776,-99999.0,'11111222,11111222,99999999' 
TABS,ioos:station:wmo:42047:1,2011-12-01T01:30:00Z,27.8966,-93.5973,2.0,28.30090005,25.24784743,-99999.0,'11111222,11111222,99999999' 
TABS,ioos:station:wmo:42047:1,2011-12-01T02:00:00Z,27.8966,-93.5973,2.0,23.75383249,25.07414007,-99999.0,'11111222,11111222,99999999' 
TABS,ioos:station:wmo:42047:1,2011-12-01T02:30:00Z,27.8966,-93.5973,2.0,44.56393147,26.00814103,-99999.0,'11111222,11111222,99999999' 
TABS,ioos:station:wmo:42047:1,2011-12-01T03:00:00Z,27.8966,-93.5973,2.0,37.75054999,24.20685853,-99999.0,'11111222,11111222,99999999' 
TABS,ioos:station:wmo:42047:1,2011-12-01T03:30:00Z,27.8966,-93.5973,2.0,28.7101013,23.8979497,-99999.0,'11111222,11111222,99999999' 
TABS,ioos:station:wmo:42047:1,2011-12-01T04:00:00Z,27.8966,-93.5973,2.0,63.4664863,24.42233814,-99999.0,'11111222,11111222,99999999' 
TABS,ioos:station:wmo:42047:1,2011-12-01T04:30:00Z,27.8966,-93.5973,2.0,68.86580954,20.41301546,-99999.0,'11111222,11111222,99999999' 
TABS,ioos:station:wmo:42047:1,2011-12-01T05:00:00Z,27.8966,-93.5973,2.0,69.40705992,23.597841,-99999.0,'11111222,11111222,99999999' 
TABS,ioos:station:wmo:42047:1,2011-12-01T05:30:00Z,27.8966,-93.5973,2.0,65.4349608,21.5285601,-99999.0,'11111222,11111222,99999999' 
TABS,ioos:station:wmo:42047:1,2011-12-01T06:00:00Z,27.8966,-93.5973,2.0,70.44427482,20.04635129,-99999.0,'11111222,11111222,99999999' 
TABS,ioos:station:wmo:42047:1,2011-12-01T06:30:00Z,27.8966,-93.5973,2.0,77.78710407,20.65751679,-99999.0,'11111222,11111222,99999999' 
TABS,ioos:station:wmo:42047:1,2011-12-01T07:00:00Z,27.8966,-93.5973,2.0,83.27722523,20.67213825,-99999.0,'11111222,11111222,99999999' 
TABS,ioos:station:wmo:42047:1,2011-12-01T07:30:00Z,27.8966,-93.5973,2.0,70.93024263,21.97601647,-99999.0,'11111222,11111222,99999999' 
TABS,ioos:station:wmo:42047:1,2011-12-01T08:00:00Z,27.8966,-93.5973,2.0,103.4718861,18.71495659,-99999.0,'11111222,11111222,99999999' 
TABS,ioos:station:wmo:42047:1,2011-12-01T08:30:00Z,27.8966,-93.5973,2.0,78.11978371,17.53561234,-99999.0,'11111222,11111222,99999999' 
TABS,ioos:station:wmo:42047:1,2011-12-01T09:00:00Z,27.8966,-93.5973,2.0,95.41350318,18.23131646,-99999.0,'11111222,11111222,99999999' 
TABS,ioos:station:wmo:42047:1,2011-12-01T09:30:00Z,27.8966,-93.5973,2.0,80.87777331,12.74114595,-99999.0,'11111222,11111222,99999999' 
TABS,ioos:station:wmo:42047:1,2011-12-01T10:00:00Z,27.8966,-93.5973,2.0,74.70704808,15.92386888,-99999.0,'11111222,11111222,99999999' 
TABS,ioos:station:wmo:42047:1,2011-12-01T10:30:00Z,27.8966,-93.5973,2.0,85.01529595,16.57267932,-99999.0,'11111222,11111222,99999999' 
TABS,ioos:station:wmo:42047:1,2011-12-01T11:00:00Z,27.8966,-93.5973,2.0,74.59005635,17.19829352,-99999.0,'11111222,11111222,99999999' 
TABS,ioos:station:wmo:42047:1,2011-12-01T11:30:00Z,27.8966,-93.5973,2.0,95.07959598,14.45677696,-99999.0,'11111222,11111222,99999999' 
TABS,ioos:station:wmo:42047:1,2011-12-01T12:00:00Z,27.8966,-93.5973,2.0,85.12073763,17.28263001,-99999.0,'11111222,11111222,99999999' 
TABS,ioos:station:wmo:42047:1,2011-12-01T12:30:00Z,27.8966,-93.5973,2.0,92.19017672,15.96166031,-99999.0,'11111222,11111222,99999999' 
TABS,ioos:station:wmo:42047:1,2011-12-01T13:00:00Z,27.8966,-93.5973,2.0,79.00751812,15.57578248,-99999.0,'11111222,11111222,99999999' 
TABS,ioos:station:wmo:42047:1,2011-12-01T13:30:00Z,27.8966,-93.5973,2.0,87.73901618,15.46203738,-99999.0,'11111222,11111222,99999999' 
TABS,ioos:station:wmo:42047:1,2011-12-01T14:00:00Z,27.8966,-93.5973,2.0,85.43032227,16.19146998,-99999.0,'11111222,11111222,99999999' 
TABS,ioos:station:wmo:42047:1,2011-12-01T14:30:00Z,27.8966,-93.5973,2.0,75.01994456,15.16538493,-99999.0,'11111222,11111222,99999999' 
TABS,ioos:station:wmo:42047:1,2011-12-01T15:00:00Z,27.8966,-93.5973,2.0,90.07706202,14.87001345,-99999.0,'11111222,11111222,99999999' 
TABS,ioos:station:wmo:42047:1,2011-12-01T15:30:00Z,27.8966,-93.5973,2.0,80.59393413,13.40016791,-99999.0,'11111222,11111222,99999999' 
TABS,ioos:station:wmo:42047:1,2011-12-01T16:00:00Z,27.8966,-93.5973,2.0,94.49178525,15.57784645,-99999.0,'11111222,11111222,99999999' 
TABS,ioos:station:wmo:42047:1,2011-12-01T16:30:00Z,27.8966,-93.5973,2.0,73.75088998,14.50960027,-99999.0,'11111222,11111222,99999999' 
TABS,ioos:station:wmo:42047:1,2011-12-01T17:00:00Z,27.8966,-93.5973,2.0,81.45045162,15.06743508,-99999.0,'11111222,11111222,99999999' 
TABS,ioos:station:wmo:42047:1,2011-12-01T17:30:00Z,27.8966,-93.5973,2.0,87.32699364,13.29446501,-99999.0,'11111222,11111222,99999999' 
TABS,ioos:station:wmo:42047:1,2011-12-01T18:00:00Z,27.8966,-93.5973,2.0,77.34291399,15.01487929,-99999.0,'11111222,11111222,99999999' 
TABS,ioos:station:wmo:42047:1,2011-12-01T18:30:00Z,27.8966,-93.5973,2.0,97.05411669,16.0414245,-99999.0,'11111222,11111222,99999999' 
TABS,ioos:station:wmo:42047:1,2011-12-01T19:00:00Z,27.8966,-93.5973,2.0,74.04971485,15.97503365,-99999.0,'11111222,11111222,99999999' 
TABS,ioos:station:wmo:42047:1,2011-12-01T19:30:00Z,27.8966,-93.5973,2.0,81.16065329,15.42318061,-99999.0,'11111222,11111222,99999999' 
TABS,ioos:station:wmo:42047:1,2011-12-01T20:00:00Z,27.8966,-93.5973,2.0,98.76542307,15.81470834,-99999.0,'11111222,11111222,99999999' 
TABS,ioos:station:wmo:42047:1,2011-12-01T20:30:00Z,27.8966,-93.5973,2.0,80.13421613,15.17440279,-99999.0,'11111222,11111222,99999999' 
TABS,ioos:station:wmo:42047:1,2011-12-01T21:00:00Z,27.8966,-93.5973,2.0,81.46718359,13.68143998,-99999.0,'11111222,11111222,99999999' 
TABS,ioos:station:wmo:42047:1,2011-12-01T21:30:00Z,27.8966,-93.5973,2.0,66.36729665,9.703823989,-99999.0,'11133222,11111222,99999999' 
TABS,ioos:station:wmo:42047:1,2011-12-01T22:00:00Z,27.8966,-93.5973,2.0,77.64052018,10.27820996,-99999.0,'11111222,11111222,99999999' 
TABS,ioos:station:wmo:42047:1,2011-12-01T22:30:00Z,27.8966,-93.5973,2.0,73.48121455,11.25451465,-99999.0,'11111222,11111222,99999999' 
TABS,ioos:station:wmo:42047:1,2011-12-01T23:00:00Z,27.8966,-93.5973,2.0,67.48770188,9.428478138,-99999.0,'11133222,11111222,99999999' 
TABS,ioos:station:wmo:42047:1,2011-12-01T23:30:00Z,27.8966,-93.5973,2.0,75.88712945,9.06356442,-99999.0,'11133222,11111222,99999999' 
TABS,ioos:station:wmo:42047:1,2011-12-02T00:00:00Z,27.8966,-93.5973,2.0,66.79064303,6.952675744,-99999.0,'11133222,11111222,99999999' 
TABS,ioos:station:wmo:42047:1,2011-12-02T00:30:00Z,27.8966,-93.5973,2.0,66.26503573,8.695493086,-99999.0,'11133222,11111222,99999999' 
TABS,ioos:station:wmo:42047:1,2011-12-02T01:00:00Z,27.8966,-93.5973,2.0,64.30269523,10.63148626,-99999.0,'11111222,11111222,99999999' 
TABS,ioos:station:wmo:42047:1,2011-12-02T01:30:00Z,27.8966,-93.5973,2.0,65.70171467,8.141185417,-99999.0,'11133222,11111222,99999999' 
TABS,ioos:station:wmo:42047:1,2011-12-02T02:00:00Z,27.8966,-93.5973,2.0,36.27630588,9.650518121,-99999.0,'11133222,11111222,99999999' 
TABS,ioos:station:wmo:42047:1,2011-12-02T02:30:00Z,27.8966,-93.5973,2.0,46.75649117,8.305335634,-99999.0,'11133222,11111222,99999999' 
TABS,ioos:station:wmo:42047:1,2011-12-02T03:00:00Z,27.8966,-93.5973,2.0,88.36342679,4.901999592,-99999.0,'11133222,11111222,99999999' 
TABS,ioos:station:wmo:42047:1,2011-12-02T03:30:00Z,27.8966,-93.5973,2.0,96.10607957,4.324534657,-99999.0,'11133222,11111222,99999999' 
TABS,ioos:station:wmo:42047:1,2011-12-02T04:00:00Z,27.8966,-93.5973,2.0,71.68190482,6.204401663,-99999.0,'11133222,11111222,99999999' 
TABS,ioos:station:wmo:42047:1,2011-12-02T04:30:00Z,27.8966,-93.5973,2.0,66.1637182,5.072681737,-99999.0,'11133222,11111222,99999999' 
TABS,ioos:station:wmo:42047:1,2011-12-02T05:00:00Z,27.8966,-93.5973,2.0,107.185666,3.045997374,-99999.0,'11133222,11111222,99999999' 
TABS,ioos:station:wmo:42047:1,2011-12-02T05:30:00Z,27.8966,-93.5973,2.0,172.2105223,2.139742975,-99999.0,'11133222,11111222,99999999' 
TABS,ioos:station:wmo:42047:1,2011-12-02T06:00:00Z,27.8966,-93.5973,2.0,154.0785447,1.990226118,-99999.0,'11133222,11111222,99999999' 
TABS,ioos:station:wmo:42047:1,2011-12-02T06:30:00Z,27.8966,-93.5973,2.0,306.1625911,4.372333473,-99999.0,'11133222,11111222,99999999' 
TABS,ioos:station:wmo:42047:1,2011-12-02T07:00:00Z,27.8966,-93.5973,2.0,126.1129008,1.96817174,-99999.0,'11133222,11111222,99999999' 
TABS,ioos:station:wmo:42047:1,2011-12-02T07:30:00Z,27.8966,-93.5973,2.0,60.89021251,1.007223908,-99999.0,'11133222,11111222,99999999' 
TABS,ioos:station:wmo:42047:1,2011-12-02T08:00:00Z,27.8966,-93.5973,2.0,104.1947044,1.753539278,-99999.0,'11133222,11111222,99999999' 
TABS,ioos:station:wmo:42047:1,2011-12-02T08:30:00Z,27.8966,-93.5973,2.0,82.07309185,0.797621464,-99999.0,'11133222,11111222,99999999' 
TABS,ioos:station:wmo:42047:1,2011-12-02T09:00:00Z,27.8966,-93.5973,2.0,358.5499976,1.580506248,-99999.0,'11133222,11111222,99999999' 
TABS,ioos:station:wmo:42047:1,2011-12-02T09:30:00Z,27.8966,-93.5973,2.0,342.9149525,2.416650575,-99999.0,'11133222,11111222,99999999' 
TABS,ioos:station:wmo:42047:1,2011-12-02T10:00:00Z,27.8966,-93.5973,2.0,310.224681,5.605604339,-99999.0,'11133222,11111222,99999999' 
TABS,ioos:station:wmo:42047:1,2011-12-02T10:30:00Z,27.8966,-93.5973,2.0,321.7611322,15.31637359,-99999.0,'11111222,11111222,99999999' 
TABS,ioos:station:wmo:42047:1,2011-12-02T11:00:00Z,27.8966,-93.5973,2.0,312.2445668,13.08954163,-99999.0,'11111222,11111222,99999999' 
TABS,ioos:station:wmo:42047:1,2011-12-02T11:30:00Z,27.8966,-93.5973,2.0,314.4406691,11.58296162,-99999.0,'11111222,11111222,99999999' 
TABS,ioos:station:wmo:42047:1,2011-12-02T12:00:00Z,27.8966,-93.5973,2.0,315.879366,10.60077827,-99999.0,'11111222,11111222,99999999' 
TABS,ioos:station:wmo:42047:1,2011-12-02T12:30:00Z,27.8966,-93.5973,2.0,311.1137352,11.89260274,-99999.0,'11111222,11111222,99999999' 
TABS,ioos:station:wmo:42047:1,2011-12-02T13:00:00Z,27.8966,-93.5973,2.0,315.3153711,9.001605412,-99999.0,'11133222,11111222,99999999' 
TABS,ioos:station:wmo:42047:1,2011-12-02T13:30:00Z,27.8966,-93.5973,2.0,305.3659158,9.67533462,-99999.0,'11133222,11111222,99999999' 
TABS,ioos:station:wmo:42047:1,2011-12-02T14:00:00Z,27.8966,-93.5973,2.0,314.8247422,6.92260789,-99999.0,'11133222,11111222,99999999' 
TABS,ioos:station:wmo:42047:1,2011-12-02T14:30:00Z,27.8966,-93.5973,2.0,302.8288859,7.747264033,-99999.0,'11133222,11111222,99999999' 
TABS,ioos:station:wmo:42047:1,2011-12-02T15:00:00Z,27.8966,-93.5973,2.0,317.108037,6.729138132,-99999.0,'11133222,11111222,99999999' 
TABS,ioos:station:wmo:42047:1,2011-12-02T15:30:00Z,27.8966,-93.5973,2.0,302.4178618,7.368235881,-99999.0,'11133222,11111222,99999999' 
TABS,ioos:station:wmo:42047:1,2011-12-02T16:00:00Z,27.8966,-93.5973,2.0,278.4077797,6.429090138,-99999.0,'11133222,11111222,99999999' 
TABS,ioos:station:wmo:42047:1,2011-12-02T16:30:00Z,27.8966,-93.5973,2.0,277.8907749,8.45,-99999.0,'11133222,11111222,99999999' 
TABS,ioos:station:wmo:42047:1,2011-12-02T17:00:00Z,27.8966,-93.5973,2.0,261.9619826,3.504425773,-99999.0,'11133222,11111222,99999999' 
TABS,ioos:station:wmo:42047:1,2011-12-02T17:30:00Z,27.8966,-93.5973,2.0,296.4120768,5.013282358,-99999.0,'11133222,11111222,99999999' 
TABS,ioos:station:wmo:42047:1,2011-12-02T18:00:00Z,27.8966,-93.5973,2.0,294.1321036,6.530735028,-99999.0,'11133222,11111222,99999999' 
TABS,ioos:station:wmo:42047:1,2011-12-02T18:30:00Z,27.8966,-93.5973,2.0,307.5179673,5.484350463,-99999.0,'11133222,11111222,99999999' 
TABS,ioos:station:wmo:42047:1,2011-12-02T19:00:00Z,27.8966,-93.5973,2.0,318.4685368,7.013201837,-99999.0,'11133222,11111222,99999999' 
TABS,ioos:station:wmo:42047:1,2011-12-02T19:30:00Z,27.8966,-93.5973,2.0,319.2346172,7.182597023,-99999.0,'11133222,11111222,99999999' 
TABS,ioos:station:wmo:42047:1,2011-12-02T20:00:00Z,27.8966,-93.5973,2.0,331.4584,4.667215444,-99999.0,'11133222,11111222,99999999' 
TABS,ioos:station:wmo:42047:1,2011-12-02T20:30:00Z,27.8966,-93.5973,2.0,304.9854051,6.749651843,-99999.0,'11133222,11111222,99999999' 
TABS,ioos:station:wmo:42047:1,2011-12-02T21:00:00Z,27.8966,-93.5973,2.0,309.1813584,6.695446214,-99999.0,'11133222,11111222,99999999' 
TABS,ioos:station:wmo:42047:1,2011-12-02T21:30:00Z,27.8966,-93.5973,2.0,310.9534072,6.71303955,-99999.0,'11133222,11111222,99999999' 
TABS,ioos:station:wmo:42047:1,2011-12-02T22:00:00Z,27.8966,-93.5973,2.0,313.1344836,7.166791472,-99999.0,'11133222,11111222,99999999' 
TABS,ioos:station:wmo:42047:1,2011-12-02T22:30:00Z,27.8966,-93.5973,2.0,323.8667693,7.936655467,-99999.0,'11133222,11111222,99999999' 
TABS,ioos:station:wmo:42047:1,2011-12-02T23:00:00Z,27.8966,-93.5973,2.0,336.8637765,6.057169306,-99999.0,'11133222,11111222,99999999' 
TABS,ioos:station:wmo:42047:1,2011-12-02T23:30:00Z,27.8966,-93.5973,2.0,310.5098743,4.064197338,-99999.0,'11133222,11111222,99999999' 
TABS,ioos:station:wmo:42047:1,2011-12-03T00:00:00Z,27.8966,-93.5973,2.0,310.5517405,3.737713205,-99999.0,'11133222,11111222,99999999' 
TABS,ioos:station:wmo:42047:1,2011-12-03T00:30:00Z,27.8966,-93.5973,2.0,314.7306911,6.010474191,-99999.0,'11133222,11111222,99999999' 
TABS,ioos:station:wmo:42047:1,2011-12-03T01:00:00Z,27.8966,-93.5973,2.0,338.2844316,4.972926704,-99999.0,'11133222,11111222,99999999' 
TABS,ioos:station:wmo:42047:1,2011-12-03T01:30:00Z,27.8966,-93.5973,2.0,322.3478936,5.418505329,-99999.0,'11133222,11111222,99999999' 
TABS,ioos:station:wmo:42047:1,2011-12-03T02:00:00Z,27.8966,-93.5973,2.0,300.9806884,5.925276365,-99999.0,'11133222,11111222,99999999' 
TABS,ioos:station:wmo:42047:1,2011-12-03T02:30:00Z,27.8966,-93.5973,2.0,289.9228264,6.456384437,-99999.0,'11133222,11111222,99999999' 
TABS,ioos:station:wmo:42047:1,2011-12-03T03:00:00Z,27.8966,-93.5973,2.0,303.6548995,8.950089385,-99999.0,'11133222,11111222,99999999' 
TABS,ioos:station:wmo:42047:1,2011-12-03T03:30:00Z,27.8966,-93.5973,2.0,295.1247907,6.759534008,-99999.0,'11133222,11111222,99999999' 
TABS,ioos:station:wmo:42047:1,2011-12-03T04:00:00Z,27.8966,-93.5973,2.0,309.2426344,5.991135118,-99999.0,'11133222,11111222,99999999' 
TABS,ioos:station:wmo:42047:1,2011-12-03T04:30:00Z,27.8966,-93.5973,2.0,301.0107627,8.424013295,-99999.0,'11133222,11111222,99999999' 
TABS,ioos:station:wmo:42047:1,2011-12-03T05:00:00Z,27.8966,-93.5973,2.0,310.7959464,6.076257072,-99999.0,'11133222,11111222,99999999' 
TABS,ioos:station:wmo:42047:1,2011-12-03T05:30:00Z,27.8966,-93.5973,2.0,325.9751633,6.165598106,-99999.0,'11133222,11111222,99999999' 
TABS,ioos:station:wmo:42047:1,2011-12-03T06:00:00Z,27.8966,-93.5973,2.0,356.0978446,6.906011874,-99999.0,'11133222,11111222,99999999' 
TABS,ioos:station:wmo:42047:1,2011-12-03T06:30:00Z,27.8966,-93.5973,2.0,348.9101076,6.134557849,-99999.0,'11133222,11111222,99999999' 
TABS,ioos:station:wmo:42047:1,2011-12-03T07:00:00Z,27.8966,-93.5973,2.0,301.4678907,2.145530237,-99999.0,'11133222,11111222,99999999' 
TABS,ioos:station:wmo:42047:1,2011-12-03T07:30:00Z,27.8966,-93.5973,2.0,346.1002556,6.119191123,-99999.0,'11133222,11111222,99999999' 
TABS,ioos:station:wmo:42047:1,2011-12-03T08:00:00Z,27.8966,-93.5973,2.0,353.6793836,3.269877674,-99999.0,'11133222,11111222,99999999' 
TABS,ioos:station:wmo:42047:1,2011-12-03T08:30:00Z,27.8966,-93.5973,2.0,334.2568758,3.430481016,-99999.0,'11133222,11111222,99999999' 
TABS,ioos:station:wmo:42047:1,2011-12-03T09:00:00Z,27.8966,-93.5973,2.0,321.0810424,4.138647122,-99999.0,'11133222,11111222,99999999' 
TABS,ioos:station:wmo:42047:1,2011-12-03T09:30:00Z,27.8966,-93.5973,2.0,296.6884939,4.163568181,-99999.0,'11133222,11111222,99999999' 
TABS,ioos:station:wmo:42047:1,2011-12-03T10:00:00Z,27.8966,-93.5973,2.0,12.85827056,0.943663075,-99999.0,'11133222,11111222,99999999' 
TABS,ioos:station:wmo:42047:1,2011-12-03T10:30:00Z,27.8966,-93.5973,2.0,319.925284,9.801331542,-99999.0,'11133222,11111222,99999999' 
TABS,ioos:station:wmo:42047:1,2011-12-03T11:00:00Z,27.8966,-93.5973,2.0,330.6209162,10.11027695,-99999.0,'11111222,11111222,99999999' 
TABS,ioos:station:wmo:42047:1,2011-12-03T11:30:00Z,27.8966,-93.5973,2.0,328.4724741,12.71723633,-99999.0,'11111222,11111222,99999999' 
TABS,ioos:station:wmo:42047:1,2011-12-03T12:00:00Z,27.8966,-93.5973,2.0,353.0618409,11.42365966,-99999.0,'11111222,11111222,99999999' 
TABS,ioos:station:wmo:42047:1,2011-12-03T12:30:00Z,27.8966,-93.5973,2.0,333.1239241,15.63929027,-99999.0,'11111222,11111222,99999999' 
TABS,ioos:station:wmo:42047:1,2011-12-03T13:00:00Z,27.8966,-93.5973,2.0,340.5353018,15.30473456,-99999.0,'11111222,11111222,99999999' 
TABS,ioos:station:wmo:42047:1,2011-12-03T13:30:00Z,27.8966,-93.5973,2.0,339.0006357,11.94323658,-99999.0,'11111222,11111222,99999999' 
TABS,ioos:station:wmo:42047:1,2011-12-03T14:00:00Z,27.8966,-93.5973,2.0,345.8453308,12.88109467,-99999.0,'11111222,11111222,99999999' 
TABS,ioos:station:wmo:42047:1,2011-12-03T14:30:00Z,27.8966,-93.5973,2.0,332.2639123,12.03255999,-99999.0,'11111222,11111222,99999999' 
TABS,ioos:station:wmo:42047:1,2011-12-03T15:00:00Z,27.8966,-93.5973,2.0,344.538149,13.35329547,-99999.0,'11111222,11111222,99999999' 
TABS,ioos:station:wmo:42047:1,2011-12-03T15:30:00Z,27.8966,-93.5973,2.0,2.290815145,14.51159536,-99999.0,'11111222,11111222,99999999' 
TABS,ioos:station:wmo:42047:1,2011-12-03T16:00:00Z,27.8966,-93.5973,2.0,2.710797833,8.66970011,-99999.0,'11133222,11111222,99999999' 
TABS,ioos:station:wmo:42047:1,2011-12-03T16:30:00Z,27.8966,-93.5973,2.0,12.33331501,11.75119143,-99999.0,'11111222,11111222,99999999' 
TABS,ioos:station:wmo:42047:1,2011-12-03T17:00:00Z,27.8966,-93.5973,2.0,6.450513418,6.320007911,-99999.0,'11133222,11111222,99999999' 
TABS,ioos:station:wmo:42047:1,2011-12-03T17:30:00Z,27.8966,-93.5973,2.0,353.5201627,8.594911285,-99999.0,'11133222,11111222,99999999' 
TABS,ioos:station:wmo:42047:1,2011-12-03T18:00:00Z,27.8966,-93.5973,2.0,11.95871873,6.756633777,-99999.0,'11133222,11111222,99999999' 
TABS,ioos:station:wmo:42047:1,2011-12-03T18:30:00Z,27.8966,-93.5973,2.0,340.8507702,5.578691603,-99999.0,'11133222,11111222,99999999' 
TABS,ioos:station:wmo:42047:1,2011-12-03T19:00:00Z,27.8966,-93.5973,2.0,17.90297378,5.107298699,-99999.0,'11133222,11111222,99999999' 
TABS,ioos:station:wmo:42047:1,2011-12-03T19:30:00Z,27.8966,-93.5973,2.0,357.0494382,6.799014634,-99999.0,'11133222,11111222,99999999' 
TABS,ioos:station:wmo:42047:1,2011-12-03T20:00:00Z,27.8966,-93.5973,2.0,307.1712575,2.284031523,-99999.0,'11133222,11111222,99999999' 
TABS,ioos:station:wmo:42047:1,2011-12-03T20:30:00Z,27.8966,-93.5973,2.0,202.4071819,2.282323378,-99999.0,'11133222,11111222,99999999' 
TABS,ioos:station:wmo:42047:1,2011-12-03T21:00:00Z,27.8966,-93.5973,2.0,301.429913,2.742353004,-99999.0,'11133222,11111222,99999999' 
TABS,ioos:station:wmo:42047:1,2011-12-03T21:30:00Z,27.8966,-93.5973,2.0,323.9392609,7.508748231,-99999.0,'11133222,11111222,99999999' 
TABS,ioos:station:wmo:42047:1,2011-12-03T22:00:00Z,27.8966,-93.5973,2.0,306.1336604,3.578295684,-99999.0,'11133222,11111222,99999999' 
TABS,ioos:station:wmo:42047:1,2011-12-03T22:30:00Z,27.8966,-93.5973,2.0,319.2529347,5.530659997,-99999.0,'11133222,11111222,99999999' 
TABS,ioos:station:wmo:42047:1,2011-12-03T23:00:00Z,27.8966,-93.5973,2.0,295.9886277,6.663820226,-99999.0,'11133222,11111222,99999999' 
TABS,ioos:station:wmo:42047:1,2011-12-03T23:30:00Z,27.8966,-93.5973,2.0,329.3287338,4.371555787,-99999.0,'11133222,11111222,99999999' 
TABS,ioos:station:wmo:42047:1,2011-12-04T00:00:00Z,27.8966,-93.5973,2.0,299.8736158,3.874854836,-99999.0,'11133222,11111222,99999999' 
TABS,ioos:station:wmo:42047:1,2011-12-04T00:30:00Z,27.8966,-93.5973,2.0,334.6388548,8.941772755,-99999.0,'11133222,11111222,99999999' 
TABS,ioos:station:wmo:42047:1,2011-12-04T01:00:00Z,27.8966,-93.5973,2.0,336.5982285,5.916705164,-99999.0,'11133222,11111222,99999999' 
TABS,ioos:station:wmo:42047:1,2011-12-04T01:30:00Z,27.8966,-93.5973,2.0,333.8358837,6.395310782,-99999.0,'11133222,11111222,99999999' 
TABS,ioos:station:wmo:42047:1,2011-12-04T02:00:00Z,27.8966,-93.5973,2.0,306.3884678,6.422227028,-99999.0,'11133222,11111222,99999999' 
TABS,ioos:station:wmo:42047:1,2011-12-04T02:30:00Z,27.8966,-93.5973,2.0,340.626116,5.787745675,-99999.0,'11133222,11111222,99999999' 
TABS,ioos:station:wmo:42047:1,2011-12-04T03:00:00Z,27.8966,-93.5973,2.0,343.2596246,6.631033102,-99999.0,'11133222,11111222,99999999' 
TABS,ioos:station:wmo:42047:1,2011-12-04T03:30:00Z,27.8966,-93.5973,2.0,344.2588469,5.787037239,-99999.0,'11133222,11111222,99999999' 
TABS,ioos:station:wmo:42047:1,2011-12-04T04:00:00Z,27.8966,-93.5973,2.0,359.7269424,6.290071542,-99999.0,'11133222,11144222,99999999' 
TABS,ioos:station:wmo:42047:1,2011-12-04T04:30:00Z,27.8966,-93.5973,2.0,325.6606391,4.892770176,-99999.0,'11133222,11111222,99999999' 
TABS,ioos:station:wmo:42047:1,2011-12-04T05:00:00Z,27.8966,-93.5973,2.0,6.710031576,7.531586818,-99999.0,'11133222,11111222,99999999' 
TABS,ioos:station:wmo:42047:1,2011-12-04T05:30:00Z,27.8966,-93.5973,2.0,331.4868329,5.656049858,-99999.0,'11133222,11111222,99999999' 
TABS,ioos:station:wmo:42047:1,2011-12-04T06:00:00Z,27.8966,-93.5973,2.0,357.8692626,6.454463572,-99999.0,'11133222,11111222,99999999' 
TABS,ioos:station:wmo:42047:1,2011-12-04T06:30:00Z,27.8966,-93.5973,2.0,340.7756751,2.065163432,-99999.0,'11133222,11111222,99999999' 
TABS,ioos:station:wmo:42047:1,2011-12-04T07:00:00Z,27.8966,-93.5973,2.0,35.72543535,3.904779123,-99999.0,'11133222,11111222,99999999' 
TABS,ioos:station:wmo:42047:1,2011-12-04T07:30:00Z,27.8966,-93.5973,2.0,307.2010799,5.888098165,-99999.0,'11133222,11111222,99999999' 
TABS,ioos:station:wmo:42047:1,2011-12-04T08:00:00Z,27.8966,-93.5973,2.0,321.3890482,5.528553156,-99999.0,'11133222,11111222,99999999' 
TABS,ioos:station:wmo:42047:1,2011-12-04T08:30:00Z,27.8966,-93.5973,2.0,326.0315099,3.991115132,-99999.0,'11133222,11111222,99999999' 
TABS,ioos:station:wmo:42047:1,2011-12-04T09:00:00Z,27.8966,-93.5973,2.0,339.5627763,4.524820438,-99999.0,'11133222,11111222,99999999' 
TABS,ioos:station:wmo:42047:1,2011-12-04T09:30:00Z,27.8966,-93.5973,2.0,2.975103242,6.358569021,-99999.0,'11133222,11111222,99999999' 
TABS,ioos:station:wmo:42047:1,2011-12-04T10:00:00Z,27.8966,-93.5973,2.0,344.9624297,6.937578828,-99999.0,'11133222,11111222,99999999' 
TABS,ioos:station:wmo:42047:1,2011-12-04T10:30:00Z,27.8966,-93.5973,2.0,327.9149175,6.833812991,-99999.0,'11133222,11111222,99999999' 
TABS,ioos:station:wmo:42047:1,2011-12-04T11:00:00Z,27.8966,-93.5973,2.0,349.3091645,6.899768112,-99999.0,'11133222,11111222,99999999' 
TABS,ioos:station:wmo:42047:1,2011-12-04T11:30:00Z,27.8966,-93.5973,2.0,349.5290732,6.162629309,-99999.0,'11133222,11111222,99999999' 
TABS,ioos:station:wmo:42047:1,2011-12-04T12:00:00Z,27.8966,-93.5973,2.0,334.8193742,10.55284796,-99999.0,'11111222,11111222,99999999' 
TABS,ioos:station:wmo:42047:1,2011-12-04T12:30:00Z,27.8966,-93.5973,2.0,351.0813027,11.0941426,-99999.0,'11111222,11111222,99999999' 
TABS,ioos:station:wmo:42047:1,2011-12-04T13:00:00Z,27.8966,-93.5973,2.0,336.173074,11.60950042,-99999.0,'11111222,11111222,99999999' 
TABS,ioos:station:wmo:42047:1,2011-12-04T13:30:00Z,27.8966,-93.5973,2.0,358.906683,9.431717765,-99999.0,'11133222,11111222,99999999' 
TABS,ioos:station:wmo:42047:1,2011-12-04T14:00:00Z,27.8966,-93.5973,2.0,353.2254113,6.696760411,-99999.0,'11133222,11111222,99999999' 
TABS,ioos:station:wmo:42047:1,2011-12-04T14:30:00Z,27.8966,-93.5973,2.0,340.5411688,11.67699448,-99999.0,'11111222,11111222,99999999' 
TABS,ioos:station:wmo:42047:1,2011-12-04T15:00:00Z,27.8966,-93.5973,2.0,341.3036826,10.38819041,-99999.0,'11111222,11111222,99999999' 
TABS,ioos:station:wmo:42047:1,2011-12-04T15:30:00Z,27.8966,-93.5973,2.0,353.573415,12.4180393,-99999.0,'11111222,11111222,99999999' 
TABS,ioos:station:wmo:42047:1,2011-12-04T16:00:00Z,27.8966,-93.5973,2.0,344.0352619,16.06981332,-99999.0,'11111222,11111222,99999999' 